Simultaneous Nadir Overpasses (SNOs) Predictions

Prediction of SNOs between AURA and NPP Satellite Orbit:

Table of predicted SNOs for the next 14.0 days since TLE Epoch: 11/11/2016
Index Date (AURA) Time (AURA) Lat,Lon (AURA) SZA (AURA ) Date (NPP) Time (NPP) Lat,Lon (NPP) SZA (NPP ) Distance(km) Time Diff (sec)
1 11/13/2016 18:18:45 79.27, 160.51 109.92 11/13/2016 18:17:46 79.26, 160.37 109.99 3.08 59
2 11/13/2016 19:08:03 -79.59, -29.71 70.50 11/13/2016 19:08:21 -79.58, -29.72 70.51 0.29 18
3 11/16/2016 10:35:06 79.50, -82.09 110.31 11/16/2016 10:34:33 79.50, -81.96 110.31 2.83 33
4 11/16/2016 11:24:29 -79.66, 86.70 69.91 11/16/2016 11:25:14 -79.66, 86.67 69.94 0.62 45
5 11/19/2016 02:51:34 79.48, 33.70 110.98 11/19/2016 02:51:29 79.47, 33.58 111.01 2.74 5
6 11/19/2016 03:40:54 -79.76,-156.68 69.39 11/19/2016 03:42:06 -79.76,-156.67 69.45 0.40 72
7 11/21/2016 18:18:41 -79.28, -19.38 68.16 11/21/2016 18:17:46 -79.27, -19.52 68.09 3.14 55
8 11/21/2016 19:07:58 79.61, 150.49 111.42 11/21/2016 19:08:20 79.61, 150.46 111.41 0.65 22
9 11/24/2016 10:35:04 -79.44, 97.58 67.79 11/24/2016 10:34:36 -79.45, 97.59 67.77 0.31 28




NCC Satellite Simultaneous Nadir Overpasses (SNOs) Prediction Service
